Theta_e
288 287 286 285 285 284 283 283 283 282 282 282 282 282 282 281 281 280 280 281 280 280 280 280 280 280 280 280 280 280 280 280 277 280 282 284 283 282 283 284 285 285 287
286 286 285 285 283 283 282 282 282 282 282 282 282 282 281 281 280 279 280 280 280 280 280 280 280 282 280 280 280 279 280 280 279 277 281 281 281 283 283 283 284 286 285
285 285 284 283 282 282 282 282 282 282 281 281 281 281 281 281 280 280 280 280 280 280 279 279 279 279 278 279 279 279 280 282 282 280 279 281 282 283 282 283 282 282 282
285 284 283 282 282 282 282 282 282 281 281 281 281 280 280 280 280 280 282 281 280 280 279 279 279 279 279 279 280 280 282 280 280 279 279 281 281 282 281 278 277 279 279
284 283 283 282 282 282 282 282 281 281 280 281 280 280 279 280 282 283 283 281 279 278 278 279 280 282 286 285 283 281 281 280 280 281 281 280 278 277 276 278 277 279 280
284 282 282 283 283 282 281 281 281 280 280 280 279 278 278 281 286 288 287 281 279 278 277 278 279 283 282 287 287 287 286 284 280 278 277 276 276 276 277 278 278 276 274
283 282 283 283 282 281 280 280 280 279 278 278 277 277 277 277 286 288 288 281 279 278 279 279 280 282 283 280 284 287 286 286 285 280 276 276 276 278 280 278 277 277 276
282 282 283 282 281 280 279 279 278 277 277 277 277 276 276 278 286 287 287 280 279 278 279 278 278 279 280 283 283 283 279 279 279 280 279 280 281 281 280 279 278 278 279
281 281 282 281 280 279 278 277 277 276 276 276 276 276 275 276 284 286 285 280 279 279 279 279 279 280 285 287 283 279 278 278 281 284 285 284 284 284 283 280 276 275 273
281 281 280 280 279 277 277 276 276 275 277 277 277 276 279 275 282 285 285 281 278 279 280 280 284 284 286 287 281 279 275 276 279 279 277 278 279 279 283 279 277 274 273
280 279 278 278 277 276 276 275 274 274 275 274 275 275 275 277 278 285 286 282 280 281 280 280 281 285 286 285 284 277 278 282 279 275 276 276 277 277 277 277 278 276 274
278 277 277 277 279 277 275 274 274 274 274 274 274 275 277 276 282 283 285 286 285 281 281 280 280 284 284 283 281 282 283 281 276 275 275 275 274 274 275 276 277 277 278
276 276 276 276 276 276 274 274 275 274 274 274 276 275 276 278 277 283 285 285 285 283 281 283 283 282 281 279 280 281 280 275 275 275 274 273 274 275 275 276 277 277 278
275 275 275 276 274 274 276 276 275 274 274 276 276 276 275 277 277 279 279 280 284 281 282 277 280 279 279 278 277 276 275 276 276 274 274 274 275 274 274 275 274 275 275
274 275 275 275 273 273 275 274 277 275 276 277 276 276 276 276 278 283 282 282 280 281 281 276 274 274 273 274 274 275 275 275 274 274 273 273 273 274 273 275 275 275 273
274 275 276 275 274 275 274 274 279 281 282 282 282 280 279 281 283 283 284 283 283 282 277 273 272 273 272 273 273 273 274 274 273 273 272 272 272 272 273 274 274 273 273
274 275 275 277 274 274 274 273 272 276 280 280 280 281 281 281 282 283 283 282 280 279 274 272 272 272 272 272 272 272 272 273 273 272 272 272 273 272 272 272 273 273 273
275 280 274 274 273 273 274 274 273 272 272 273 277 279 280 281 281 282 281 278 273 274 273 272 272 272 272 272 272 272 272 272 272 272 273 273 272 272 271 271 272 272 274
275 275 274 274 274 275 274 273 273 273 272 272 273 275 277 279 281 280 278 273 272 272 272 272 272 272 272 272 272 272 271 272 273 273 271 272 272 272 271 272 272 277 278
274 279 278 275 274 274 273 272 272 271 271 271 271 272 273 276 274 273 273 273 272 272 273 272 272 272 272 272 271 271 271 272 272 271 271 272 272 272 272 272 273 274 275
273 274 278 273 273 273 272 272 272 271 270 271 271 273 279 275 272 272 272 272 272 272 272 272 271 271 271 271 271 271 271 271 271 271 271 272 273 272 274 274 275 276 277
273 273 273 273 273 272 272 272 271 271 271 271 271 273 277 272 272 272 272 272 272 272 272 271 271 271 271 271 271 271 271 271 272 272 272 273 273 274 274 275 276 278 276
272 271 272 272 272 273 271 271 270 271 271 271 272 272 272 271 271 271 271 272 272 271 271 271 271 271 272 272 273 272 272 272 273 274 273 273 274 275 275 278 279 277 274
271 271 271 271 270 271 270 270 271 272 272 272 271 271 271 271 271 271 271 270 270 270 271 271 271 271 271 272 273 274 274 274 275 276 278 280 281 282 281 279 279 277 275
270 269 270 270 269 270 270 270 270 271 271 271 270 270 270 270 270 270 270 270 269 269 270 270 271 271 272 272 272 273 275 281 284 285 285 282 282 282 281 279 275 276 273
270 269 269 270 269 269 270 270 270 270 269 268 269 269 268 269 269 269 269 269 269 269 269 270 271 271 271 272 273 276 282 284 287 288 283 282 282 282 282 280 275 276 273
Wind_Speed
9 9 10 9 9 8 7 6 6 6 6 6 5 4 3 4 3 3 4 4 5 5 5 5 6 6 4 4 4 5 6 7 12 15 11 12 14 14 12 10 11 11 11
9 10 10 10 9 8 7 7 6 6 5 5 5 4 4 4 4 4 4 5 5 6 7 6 7 7 6 6 5 8 9 9 9 18 14 13 15 14 14 12 10 9 11
10 11 9 8 8 8 7 6 6 6 6 6 5 4 4 4 5 4 4 5 6 6 6 6 8 7 7 6 8 8 8 8 8 11 15 13 13 10 12 11 11 12 10
10 10 9 8 7 7 7 6 6 6 6 5 4 3 4 5 5 5 5 5 5 5 6 6 7 7 8 9 8 8 8 9 11 11 12 13 9 7 10 12 12 10 12
10 9 8 7 7 7 7 6 6 6 5 4 4 3 4 5 4 6 4 3 3 6 6 7 7 11 18 15 10 11 12 11 11 10 9 8 12 12 12 11 13 13 12
10 9 7 7 7 7 6 6 6 5 5 4 4 5 6 4 12 13 11 3 4 5 7 7 7 13 12 21 24 26 22 12 11 11 12 14 13 13 13 12 12 14 16
9 7 7 7 7 6 6 6 5 5 3 3 5 5 5 5 12 15 16 3 5 6 8 8 8 8 14 11 19 24 10 21 20 16 15 13 15 14 13 15 14 13 15
8 7 7 7 7 6 6 5 4 3 4 3 4 5 5 5 14 16 17 5 5 7 9 8 9 10 10 17 15 10 9 8 11 11 12 14 14 15 15 14 15 16 13
8 7 6 7 7 6 6 4 3 4 3 3 3 6 6 6 15 18 16 5 6 8 8 8 9 10 18 26 15 12 12 11 15 23 20 26 28 26 22 12 10 12 14
7 7 7 7 7 6 5 4 3 2 3 4 5 5 8 6 14 18 15 5 6 7 6 6 13 16 26 25 17 13 11 14 13 10 12 14 17 16 23 12 10 12 13
8 8 7 7 7 5 4 2 2 3 4 5 5 6 6 7 9 19 18 8 7 8 7 7 7 21 25 26 24 9 14 17 14 11 11 11 11 11 10 10 11 11 12
8 8 7 6 4 4 5 3 4 5 5 5 6 5 4 6 13 15 18 19 19 9 9 7 9 24 25 23 17 22 24 19 9 10 10 11 10 11 11 12 14 13 12
8 7 6 5 4 4 4 4 3 3 3 5 5 5 6 6 5 17 19 21 19 12 7 17 21 23 21 15 20 22 19 8 9 9 10 11 10 11 13 12 13 14 14
8 6 5 5 4 4 3 3 3 3 4 5 5 6 5 6 6 7 6 6 12 10 13 5 15 17 16 16 13 11 8 9 10 9 10 11 11 10 11 10 11 12 12
6 5 4 4 3 3 2 1 3 3 3 4 4 4 6 7 7 17 15 9 10 13 16 7 7 8 9 9 9 9 9 9 9 9 10 11 11 11 11 10 10 11 10
6 4 3 3 2 2 3 4 7 8 12 13 15 11 6 14 19 20 20 22 21 22 8 7 8 8 9 10 10 11 10 13 9 10 10 10 11 11 11 11 10 9 10
6 4 3 4 3 3 3 3 6 6 10 12 14 15 16 17 18 20 21 21 18 15 6 7 8 8 9 10 10 10 11 10 11 9 10 10 10 10 14 11 10 9 10
5 8 4 2 2 2 3 3 3 4 6 7 12 14 16 18 19 19 20 15 8 8 6 8 8 9 9 10 10 10 11 11 10 9 10 10 10 9 10 10 10 10 10
4 2 2 1 2 3 3 3 3 4 5 6 6 8 13 18 18 18 16 6 7 8 8 8 8 9 9 10 10 10 11 10 11 10 10 10 10 9 10 9 10 17 16
3 5 3 1 3 3 3 3 3 4 4 5 6 6 7 10 7 8 7 7 7 7 8 9 9 9 10 10 10 10 11 11 10 9 10 10 9 9 9 10 9 9 8
2 3 5 3 3 3 3 3 3 4 4 5 6 7 18 9 7 7 7 7 7 8 9 9 10 10 10 10 10 10 11 11 10 10 10 10 9 10 9 9 9 9 6
2 2 2 3 3 3 4 3 4 4 5 5 6 8 17 6 6 7 8 8 8 8 8 9 10 10 10 10 10 10 11 12 11 10 10 10 9 9 9 9 8 6 5
2 3 3 3 3 7 4 4 4 4 5 6 6 7 7 7 7 8 8 8 8 9 9 9 10 11 10 10 10 9 11 12 11 11 12 12 10 9 8 8 7 5 3
2 3 3 3 3 4 4 5 5 8 8 7 7 7 7 7 8 9 8 8 9 9 9 9 10 14 13 13 11 10 10 10 10 13 17 10 7 7 7 6 6 5 4
2 3 3 3 4 4 6 5 6 6 6 7 8 7 8 8 8 8 8 8 9 9 11 12 10 13 16 20 19 19 18 28 21 15 6 6 6 8 7 4 3 3 3
3 3 3 3 4 4 5 6 6 6 7 7 7 7 8 8 8 8 9 9 9 10 13 11 13 18 20 16 17 21 29 28 19 14 6 5 6 6 5 5 4 2 3
Wind_Direction
115 114 115 112 109 105 105 113 111 101 100 93 85 73 40 20 360 351 335 307 326 313 300 288 283 267 251 250 244 248 253 254 272 292 292 299 297 294 287 280 274 275 283
115 112 109 110 108 106 108 109 111 110 95 94 79 61 29 359 350 352 327 320 321 314 302 304 292 294 267 259 261 259 255 257 268 286 294 300 294 296 294 289 282 282 262
114 115 110 110 109 109 111 113 107 105 89 71 65 41 11 350 341 320 314 318 315 305 304 301 293 288 283 272 263 266 266 268 269 279 290 292 293 294 296 293 285 279 275
114 115 114 114 116 118 118 111 102 94 84 66 51 33 3 337 324 319 314 307 316 327 312 299 295 290 284 277 268 278 294 296 285 280 281 286 291 306 291 301 299 291 290
116 113 114 118 116 115 108 102 96 84 79 64 41 12 357 338 330 307 287 300 319 303 295 296 290 295 310 315 312 312 301 294 293 288 310 313 301 312 305 301 294 297 291
116 116 120 117 115 109 106 103 92 78 64 48 18 3 352 333 317 322 325 282 293 300 297 284 274 295 299 313 312 308 306 315 324 310 304 304 304 301 298 295 296 304 301
113 115 118 118 111 106 105 95 80 66 45 26 11 353 322 310 322 327 321 292 296 291 287 288 299 302 314 296 295 301 304 312 310 307 303 297 295 298 298 302 298 293 293
111 114 117 111 105 102 93 84 69 49 29 11 336 328 328 321 329 324 321 317 292 277 279 284 289 296 294 300 310 316 311 290 300 301 296 294 294 303 299 301 299 293 288
116 115 113 110 106 100 88 79 60 43 9 332 318 334 335 307 325 329 326 298 281 277 282 281 287 287 303 315 323 314 314 308 305 306 306 311 307 309 308 304 302 302 298
115 111 102 100 104 99 99 71 45 21 341 340 334 329 313 315 324 325 324 301 287 291 281 265 296 317 317 323 321 324 321 309 305 318 313 308 307 298 306 306 303 296 297
105 98 92 92 99 101 87 74 35 6 2 350 320 305 315 310 309 323 326 323 310 309 319 319 308 311 322 328 326 332 301 314 332 320 310 305 303 307 307 301 294 291 295
100 96 94 91 84 89 82 45 25 19 353 329 322 313 300 294 309 324 328 327 321 326 323 310 302 324 327 328 331 315 325 334 316 310 306 307 312 306 304 303 297 289 280
96 98 103 94 78 67 57 32 19 2 344 323 319 313 310 311 298 314 319 318 326 323 320 317 329 327 331 331 321 327 328 313 311 306 310 305 301 299 298 301 301 296 292
106 107 101 94 73 44 32 26 1 345 334 318 309 310 300 310 304 302 294 311 317 319 318 329 327 331 328 322 322 318 314 313 312 310 304 302 302 305 308 310 307 310 306
106 103 92 88 65 33 17 323 334 295 281 304 296 301 315 320 312 326 326 327 326 331 334 335 326 326 323 319 318 315 314 312 310 307 305 305 306 310 309 311 305 308 304
110 107 99 75 45 28 5 337 337 321 327 330 332 331 321 321 326 328 331 338 339 333 340 327 322 320 316 317 316 315 313 313 308 307 303 300 303 305 309 310 310 305 307
111 105 71 57 32 8 351 335 325 328 332 336 338 337 332 330 333 327 344 336 340 341 328 319 316 313 313 311 308 307 307 308 307 301 300 299 301 305 311 308 308 307 309
78 79 68 43 11 327 313 311 308 308 318 323 331 333 333 335 328 343 340 344 330 334 319 318 312 313 309 305 305 307 307 306 305 301 301 304 300 298 305 306 308 308 308
80 67 72 26 320 303 325 315 302 305 307 302 307 320 331 327 332 338 342 332 323 318 319 316 310 308 303 303 304 304 301 300 303 307 299 297 299 300 300 300 300 311 320
52 24 35 7 328 321 315 306 313 308 300 299 310 317 313 317 338 329 330 323 316 312 313 310 309 306 303 303 303 302 302 303 303 301 298 297 297 297 297 299 300 302 304
64 7 348 352 324 314 308 311 305 298 294 302 303 307 322 343 321 317 316 315 313 312 311 308 307 302 300 299 298 299 298 297 297 296 295 296 297 299 298 294 294 295 302
46 344 330 325 324 323 300 323 306 296 302 299 300 302 324 326 313 310 310 310 311 308 305 301 298 297 296 296 297 296 296 296 297 295 293 295 295 294 295 294 294 311 314
19 347 343 336 329 327 330 302 298 303 299 298 300 309 317 314 312 311 308 309 309 307 303 299 297 297 297 296 294 288 288 290 290 290 290 291 292 290 286 289 310 319 321
22 353 342 337 327 330 312 309 312 315 313 308 310 311 311 310 313 308 306 305 305 303 300 298 296 294 298 300 300 297 290 287 283 277 275 274 284 304 307 310 322 325 316
16 357 345 332 317 313 312 308 301 301 307 310 311 310 309 312 306 304 304 305 304 303 304 304 298 298 300 304 300 299 299 306 312 308 308 310 299 304 303 311 316 323 338
2 353 329 318 309 303 301 301 303 310 311 306 305 306 305 305 303 304 305 304 305 305 303 298 298 301 304 303 301 307 314 317 319 335 339 311 307 300 309 330 338 345 326